This is the latest recevied weather packets stored in our database for station/object W0VI. If no packets are shown the sender has not sent any weather packets the latest 10 day(s).
| Time | Temp. | Humidity | Pressure | Rain* | Wind** | Luminosity | Snow |
|---|---|---|---|---|---|---|---|
| 1787875142 | 26.11° C | 44% | 1017.6 hPa | 0 mm | - | 46 W/m² | - |
| 1787874837 | 26.11° C | 44% | 1017.7 hPa | 0 mm | - | 50 W/m² | - |
| 1787874536 | 26.67° C | 42% | 1017.6 hPa | 0 mm | - | 56 W/m² | - |
| 1787874231 | 26.67° C | 43% | 1017.7 hPa | 0 mm | - | 76 W/m² | - |
| 1787873926 | 26.11° C | 43% | 1017.6 hPa | 0 mm | - | 85 W/m² | - |
| 1787873625 | 26.67° C | 43% | 1017.7 hPa | 0 mm | - | 95 W/m² | - |
| 1787873321 | 27.22° C | 42% | 1017.6 hPa | 0 mm | - | 111 W/m² | - |
| 1787873019 | 26.67° C | 41% | 1017.7 hPa | 0 mm | - | 88 W/m² | - |
| 1787872714 | 26.67° C | 42% | 1017.8 hPa | 0 mm | - | 126 W/m² | - |
| 1787872410 | 26.67° C | 42% | 1017.8 hPa | 0 mm | - | 54 W/m² | - |
| 1787872104 | 26.67° C | 42% | 1017.8 hPa | 0 mm | - | 93 W/m² | - |
| 1787871799 | 27.22° C | 41% | 1017.7 hPa | 0 mm | - | 163 W/m² | - |
| 1787871494 | 27.22° C | 40% | 1017.9 hPa | 0 mm | - | 167 W/m² | - |
| 1787871190 | 26.67° C | 42% | 1017.9 hPa | 0 mm | - | 189 W/m² | - |
| 1787870889 | 26.67° C | 42% | 1017.7 hPa | 0 mm | - | 189 W/m² | - |
| 1787870584 | 27.22° C | 42% | 1017.8 hPa | 0 mm | - | 210 W/m² | - |
| 1787870280 | 26.67° C | 42% | 1017.6 hPa | 0 mm | - | 230 W/m² | - |
| 1787869974 | 26.67° C | 42% | 1017.7 hPa | 0 mm | - | 218 W/m² | - |
| 1787869673 | 27.22° C | 41% | 1017.8 hPa | 0 mm | - | 225 W/m² | - |
| 1787869368 | 27.22° C | 41% | 1017.8 hPa | 0 mm | - | 238 W/m² | - |
| 1787869068 | 27.22° C | 41% | 1017.7 hPa | 0 mm | - | 254 W/m² | - |
| 1787868766 | 27.22° C | 40% | 1017.9 hPa | 0 mm | - | 265 W/m² | - |
| 1787868465 | 27.22° C | 41% | 1017.8 hPa | 0 mm | - | 265 W/m² | - |
| 1787868165 | 26.67° C | 42% | 1018 hPa | 0 mm | - | 296 W/m² | - |
| 1787867860 | 27.22° C | 41% | 1018 hPa | 0 mm | - | 305 W/m² | - |
* Rain latest hour (hover to see other rain measurements)
** Current wind speed in m/s (hover to see current wind gust speed)